Albany, NY

8:55 PM EDT on October 16, 2019 (GMT -0400)
Albany International

Weather History for KALB - September, 2019

Change the Weather History Date:

Saturday, September 21, 2019

  Actual Average Record
Temperature  
Mean Temperature 67 °F 60 °F  
Max Temperature 84 °F 70 °F 95 °F (1895)
Min Temperature 50 °F 50 °F 29 °F (1973)
Degree Days  
Heating Degree Days 0 6  
Month to date heating degree days 52 70  
Since 1 July heating degree days 54 93  
Cooling Degree Days 2 1  
Month to date cooling degree days 26 45  
Year to date cooling degree days 749 588  
Growing Degree Days 17 (Base 50)    
Moisture  
Dew Point 52 °F    
Average Humidity 59    
Maximum Humidity 89    
Minimum Humidity 29    
Precipitation  
Precipitation 0.00 in 0.13 in 3.25 in (1938)
Month to date precipitation 1.80 2.23  
Year to date precipitation 30.78 28.38  
Sea Level Pressure  
Sea Level Pressure 30.20 in    
Wind  
Wind Speed 1 mph (South)    
Max Wind Speed 7 mph    
Max Gust Speed 10 mph    
Visibility 10 miles    
Events Fog    
T = Trace of Precipitation, MM = Missing Value Source: NWS Daily Summary

Daily Weather History Graph

Daily Weather History Graph

Search for Another Location

Airport or City:

Astronomy

Sep. 21, 2019 Rise Set
Actual Time 6:41 AM EDT 6:54 PM EDT
Civil Twilight 6:12 AM EDT 7:22 PM EDT
Nautical Twilight 5:39 AM EDT 7:55 PM EDT
Astronomical Twilight 5:05 AM EDT 8:29 PM EDT
Moon 11:21 PM EDT (9/21) 1:53 PM EDT (9/21)
Length of Visible Light 13h 10m
Length of Day
12h 13m
Waning Gibbous, 55% of the Moon is Illuminated
Sep 21
Waning Gibbous
Sep 21
Last Quarter
Sep 28
New
Oct 5
First Quarter
Oct 13
Full

Hourly Weather History & Observations

Time (EDT) Temp. Heat Index Dew Point Humidity Pressure Visibility Wind Dir Wind Speed Gust Speed Precip Events Conditions
12:51 AM 57.0 °F - 51.1 °F 81% 30.18 in 10.0 mi Calm Calm - N/A   Partly Cloudy
1:51 AM 55.0 °F - 50.0 °F 83% 30.19 in 10.0 mi Calm Calm - N/A   Scattered Clouds
2:51 AM 54.0 °F - 50.0 °F 86% 30.21 in 10.0 mi Calm Calm - N/A   Partly Cloudy
3:51 AM 53.1 °F - 48.0 °F 83% 30.21 in 10.0 mi SE 4.6 mph - N/A   Scattered Clouds
4:51 AM 53.1 °F - 48.9 °F 86% 30.21 in 10.0 mi SSW 3.5 mph - N/A   Mostly Cloudy
5:51 AM 53.1 °F - 50.0 °F 89% 30.22 in 10.0 mi Calm Calm - N/A   Partly Cloudy
6:51 AM 52.0 °F - 48.9 °F 89% 30.23 in 10.0 mi Calm Calm - N/A Fog Patches of Fog
7:51 AM 55.0 °F - 51.1 °F 86% 30.25 in 10.0 mi Calm Calm - N/A Fog Patches of Fog
8:51 AM 61.0 °F - 53.1 °F 75% 30.26 in 10.0 mi Calm Calm - N/A   Clear
9:51 AM 64.9 °F - 54.0 °F 68% 30.26 in 10.0 mi Calm Calm - N/A   Clear
10:51 AM 70.0 °F - 55.0 °F 59% 30.26 in 10.0 mi Calm Calm - N/A   Clear
11:51 AM 73.9 °F - 55.0 °F 52% 30.24 in 10.0 mi Calm Calm - N/A   Clear
12:51 PM 77.0 °F - 55.0 °F 47% 30.21 in 10.0 mi Calm Calm - N/A   Clear
1:51 PM 79.0 °F - 53.1 °F 40% 30.20 in 10.0 mi South 3.5 mph - N/A   Clear
2:51 PM 82.0 °F 81.4 °F 55.0 °F 39% 30.17 in 10.0 mi WNW 3.5 mph - N/A   Clear
3:51 PM 82.0 °F 81.3 °F 54.0 °F 38% 30.15 in 10.0 mi SSW 5.8 mph - N/A   Clear
4:51 PM 84.0 °F - 48.9 °F 29% 30.15 in 10.0 mi Calm Calm - N/A   Partly Cloudy
5:51 PM 80.1 °F 79.9 °F 53.1 °F 39% 30.15 in 10.0 mi SE 4.6 mph - N/A   Partly Cloudy
6:51 PM 71.1 °F - 55.9 °F 59% 30.15 in 10.0 mi SSW 3.5 mph - N/A   Partly Cloudy
7:51 PM 66.9 °F - 55.0 °F 66% 30.16 in 10.0 mi Calm Calm - N/A   Partly Cloudy
8:51 PM 64.0 °F - 55.0 °F 73% 30.17 in 10.0 mi Calm Calm - N/A   Clear
9:51 PM 62.1 °F - 55.0 °F 78% 30.17 in 10.0 mi Calm Calm - N/A   Clear
10:51 PM 60.1 °F - 54.0 °F 80% 30.17 in 10.0 mi Calm Calm - N/A   Clear
11:51 PM 60.1 °F - 54.0 °F 80% 30.17 in 10.0 mi Calm Calm - N/A   Clear